STARLINK-31997, 60288

Orbit data source: Space-Track

STARLINK-31997, 60288 is a payload satellite owned by SpaceX/Seattle (US) in LEO that was launched on Sun, 28 Jul 2024 UTC via an FALCON 9 launch vehicle from the Air Force Eastern Test Range (AFETR). Payload-class satellites include a variety of spacecraft equipped with specific instruments for various scientific and technological missions. These include communications satellites like Starlink; space stations such as the ISS; scientific satellites like the Hubble; Earth observation satellites from companies like Planet Labs, Umbra, and HawkEye 360; GPS; miniature CubeSats for education and research; and military/defense satellites.

Loading next visibility...
Identifier
60288, 2024-132L
Orbit
LEO
Country
Flag of USUS
Related business
Manufacturer
SpaceX/Seattle
Mission
Operational Commercial Communications
Bus & Motor
STARLINK V2M, Unknown motor
Mass
730 kg wet, ~700 kg dry
Launch date (UTC)
2024-07-28 (2 years ago)
Launch vehicle
FALCON 9
Launch site
Air Force Eastern Test Range (AFETR)
Object type
Payload
Rocket body
Debris
Shape & HBR
Box + 2 Pan, 17.7 m
Radar Cross Section
33.884 m², Large (>1 m²)

Expand to show TLE details & history
Last TLE update: 9 hours ago

TLE from 9 hours ago
0 STARLINK-31997
1 60288U 24132L   26150.06282882  .00004125  00000-0  15128-3 0  9998
2 60288  53.1602  34.1263 0001534  89.4182 270.6994 15.30209402104027
Epoch: 2026-05-30T01:30Z
TLE epoch observation values (Epoch: 2026-05-30T01:30:28.410Z)
Latitude
-0.00004°
Longitude
123.92365°
Altitude
476.074 km
Speed
7.629 km/s
True Right ascension
02h 16m 30s
True Declination
0° 00' 00"
Sunlit
Object was in daylight at epoch
Visualization orbit readout
Latitude
Unknown
Longitude
Unknown
Altitude
Unknown
Speed
Unknown
Apparent Right ascension
Unknown
Apparent Declination
Unknown
Sunlit
N/A
Visualization observer readout
Local Sidereal Time
19:53:46
Azimuth
Unknown
Elevation
Unknown
Doppler factor
Unknown
Orbital elements
Apogee altitude
476.495 km
Perigee altitude
474.392 km
Semi-major axis
6,853.58 km
Eccentricity
0.00015
Inclination
53.1602°
RAAN
34.1263°
Arg. of periapsis
89.4182°
True anomaly
270.68182°
Mean anomaly
270.6994°
Eccentric anomaly
270.69061°
Mean motion
3.82531 °/min
Orbital period
94.11 mins
BSTAR
0.00015128
Loading maneuver chart data...
Computing Atmospheric mass density...
Loading historical data...
Loading historical data...
Loading historical data...
Loading historical data...
Loading historical data...
Loading historical data...
Loading historical data...

Documentation

Showing up to 5 results
|